Weather History for Newcastle, WY

Change the Weather History Date:

Saturday, October 26, 2013

  Actual Average (KCUT) Record (KCUT)
Temperature  
Mean Temperature 45 °F 40 °F  
Max Temperature 60 °F 51 °F 72 °F (1952)
Min Temperature 30 °F 28 °F 12 °F (1953)
Degree Days  
Heating Degree Days 20 25  
Month to date heating degree days 562  
Since 1 July heating degree days 1048  
Cooling Degree Days 0 0  
Month to date cooling degree days 0  
Year to date cooling degree days 177  
Moisture  
Dew Point 30 °F    
Average Humidity 64    
Maximum Humidity 93    
Minimum Humidity 29    
Precipitation  
Precipitation 0.00 in 0.03 in 0.19 in (1989)
Month to date precipitation 1.36  
Year to date precipitation 17.85  
Sea Level Pressure  
Sea Level Pressure 30.20 in    
Wind  
Wind Speed 5 mph (North)    
Max Wind Speed 10 mph    
Max Gust Speed -    
Visibility 10 miles    
Events      
T = Trace of Precipitation, MM = Missing Value Source: NWS Daily Summary

Daily Weather History Graph

Daily Weather History Graph

Search for Another Location

Airport:

Trip Planner

Search our weather history database for the weather conditions in past years. The results will help you decide how hot, cold, wet, or windy it might be!

Date:

Astronomy

Oct. 26, 2013 Rise Set
Actual Time 7:26 AM MDT 5:55 PM MDT
Civil Twilight 6:56 AM MDT 6:25 PM MDT
Nautical Twilight 6:22 AM MDT 6:58 PM MDT
Astronomical Twilight 5:49 AM MDT 7:32 PM MDT
Moon No Moon Rise 1:45 PM MDT (10/26)
Length of Visible Light 11h 28m
Length of Day
10h 29m
Waning Gibbous, 52% of the Moon is Illuminated
Oct 26
Waning Gibbous
Oct 26
Last Quarter
Nov 3
New
Nov 9
First Quarter
Nov 17
Full

Hourly Weather History & Observations

Time (MDT) Temp. Windchill Dew Point Humidity Pressure Visibility Wind Dir Wind Speed Gust Speed Precip Events Conditions
12:15 AM 35.6 °F 30.7 °F 32.0 °F 87% 30.24 in 10.0 mi West 5.8 mph - N/A   Clear
12:35 AM 33.8 °F 27.7 °F 32.0 °F 93% 30.24 in 10.0 mi WNW 6.9 mph - N/A   Clear
1:15 AM 35.6 °F 32.8 °F 32.0 °F 87% 30.24 in 10.0 mi West 3.5 mph - N/A   Clear
1:35 AM 35.6 °F 32.8 °F 32.0 °F 87% 30.25 in 10.0 mi West 3.5 mph - N/A   Clear
1:55 AM 33.8 °F 29.6 °F 30.2 °F 87% 30.25 in 10.0 mi WNW 4.6 mph - N/A   Clear
2:15 AM 33.8 °F 27.7 °F 30.2 °F 87% 30.26 in 10.0 mi WNW 6.9 mph - N/A   Clear
2:35 AM 32.0 °F 27.5 °F 30.2 °F 93% 30.27 in 10.0 mi NW 4.6 mph - N/A   Clear
2:55 AM 33.8 °F 29.6 °F 30.2 °F 87% 30.27 in 10.0 mi NW 4.6 mph - N/A   Clear
3:15 AM 33.8 °F 28.6 °F 30.2 °F 87% 30.27 in 10.0 mi North 5.8 mph - N/A   Clear
3:35 AM 33.8 °F 28.6 °F 30.2 °F 87% 30.28 in 10.0 mi North 5.8 mph - N/A   Clear
3:55 AM 33.8 °F 27.0 °F 30.2 °F 87% 30.28 in 10.0 mi North 8.1 mph - N/A   Clear
4:15 AM 33.8 °F 27.7 °F 30.2 °F 87% 30.28 in 10.0 mi North 6.9 mph - N/A   Clear
4:35 AM 33.8 °F 28.6 °F 28.4 °F 81% 30.28 in 10.0 mi NNW 5.8 mph - N/A   Clear
4:55 AM 32.0 °F 25.6 °F 28.4 °F 87% 30.29 in 10.0 mi North 6.9 mph - N/A   Clear
5:15 AM 32.0 °F 26.4 °F 28.4 °F 87% 30.29 in 10.0 mi NNW 5.8 mph - N/A   Clear
5:35 AM 32.0 °F 26.4 °F 28.4 °F 87% 30.29 in 10.0 mi NNW 5.8 mph - N/A   Clear
5:55 AM 32.0 °F 26.4 °F 28.4 °F 87% 30.29 in 10.0 mi North 5.8 mph - N/A   Clear
6:15 AM 32.0 °F 26.4 °F 28.4 °F 87% 30.29 in 10.0 mi North 5.8 mph - N/A   Clear
6:35 AM 30.2 °F - 26.6 °F 86% 30.29 in 10.0 mi Calm Calm - N/A   Clear
6:55 AM 32.0 °F 27.5 °F 28.4 °F 87% 30.29 in 10.0 mi North 4.6 mph - N/A   Clear
7:15 AM 32.0 °F 28.7 °F 28.4 °F 87% 30.29 in 10.0 mi North 3.5 mph - N/A   Clear
7:35 AM 32.0 °F 23.6 °F 28.4 °F 87% 30.29 in 10.0 mi North 10.4 mph - N/A   Clear
7:55 AM 32.0 °F 25.6 °F 28.4 °F 87% 30.29 in 10.0 mi North 6.9 mph - N/A   Clear
8:15 AM 33.8 °F 26.4 °F 28.4 °F 81% 30.30 in 10.0 mi North 9.2 mph - N/A   Clear
8:35 AM 35.6 °F - 30.2 °F 81% 30.30 in 10.0 mi Calm Calm - N/A   Clear
8:55 AM 35.6 °F - 32.0 °F 87% 30.30 in 10.0 mi Calm Calm - N/A   Clear
9:15 AM 37.4 °F - 32.0 °F 81% 30.30 in 10.0 mi Calm Calm - N/A   Clear
9:35 AM 41.0 °F - 32.0 °F 70% 30.30 in 10.0 mi Calm Calm - N/A   Clear
9:55 AM 44.6 °F - 30.2 °F 57% 30.30 in 10.0 mi Calm Calm - N/A   Clear
10:15 AM 46.4 °F 45.2 °F 30.2 °F 53% 30.30 in 10.0 mi WNW 3.5 mph - N/A   Clear
10:35 AM 48.2 °F - 28.4 °F 46% 30.29 in 10.0 mi NW 3.5 mph - N/A   Clear
10:55 AM 50.0 °F - 28.4 °F 43% 30.28 in 10.0 mi West 3.5 mph - N/A   Clear
11:15 AM 51.8 °F - 30.2 °F 44% 30.28 in 10.0 mi Calm Calm - N/A   Clear
11:35 AM 51.8 °F - 28.4 °F 41% 30.28 in 10.0 mi Calm Calm - N/A   Clear
11:55 AM 53.6 °F - 28.4 °F 38% 30.28 in 10.0 mi Calm Calm - N/A   Clear
12:15 PM 53.6 °F - 28.4 °F 38% 30.28 in 10.0 mi NNW 3.5 mph - N/A   Clear
12:35 PM 53.6 °F - 28.4 °F 38% 30.27 in 10.0 mi NNW 3.5 mph - N/A   Clear
12:55 PM 55.4 °F - 28.4 °F 36% 30.25 in 10.0 mi Calm Calm - N/A   Clear
1:15 PM 55.4 °F - 28.4 °F 36% 30.24 in 10.0 mi Calm Calm - N/A   Clear
1:35 PM 55.4 °F - 26.6 °F 33% 30.23 in 10.0 mi Calm Calm - N/A   Clear
1:55 PM 59.0 °F - 26.6 °F 29% 30.21 in 10.0 mi West 3.5 mph - N/A   Clear
2:15 PM 59.0 °F - 28.4 °F 31% 30.21 in 10.0 mi Calm Calm - N/A   Clear
2:35 PM 59.0 °F - 28.4 °F 31% 30.20 in 10.0 mi Calm Calm - N/A   Clear
2:55 PM 59.0 °F - 28.4 °F 31% 30.19 in 10.0 mi Calm Calm - N/A   Clear
3:15 PM 59.0 °F - 28.4 °F 31% 30.18 in 10.0 mi ESE 3.5 mph - N/A   Clear
3:35 PM 59.0 °F - 28.4 °F 31% 30.17 in 10.0 mi SE 3.5 mph - N/A   Clear
3:55 PM 60.8 °F - 28.4 °F 29% 30.16 in 10.0 mi Calm Calm - N/A   Clear
4:15 PM 60.8 °F - 28.4 °F 29% 30.15 in 10.0 mi SE 3.5 mph - N/A   Clear
4:35 PM 60.8 °F - 30.2 °F 31% 30.14 in 10.0 mi ESE 5.8 mph - N/A   Clear
4:55 PM 59.0 °F - 30.2 °F 34% 30.13 in 10.0 mi ESE 5.8 mph - N/A   Clear
5:15 PM 59.0 °F - 30.2 °F 34% 30.12 in 10.0 mi ESE 5.8 mph - N/A   Clear
5:35 PM 57.2 °F - 30.2 °F 36% 30.11 in 10.0 mi SE 5.8 mph - N/A   Clear
5:55 PM 55.4 °F - 30.2 °F 38% 30.11 in 10.0 mi SE 4.6 mph - N/A   Clear
6:15 PM 51.8 °F - 32.0 °F 47% 30.11 in 10.0 mi SE 4.6 mph - N/A   Clear
6:35 PM 46.4 °F - 32.0 °F 57% 30.10 in 10.0 mi Calm Calm - N/A   Clear
6:55 PM 46.4 °F 43.5 °F 32.0 °F 57% 30.10 in 10.0 mi NE 5.8 mph - N/A   Clear
7:15 PM 44.6 °F 40.7 °F 32.0 °F 61% 30.10 in 10.0 mi NNE 6.9 mph - N/A   Clear
7:35 PM 44.6 °F - 32.0 °F 61% 30.10 in 10.0 mi Calm Calm - N/A   Clear
7:55 PM 44.6 °F 41.4 °F 32.0 °F 61% 30.09 in 10.0 mi NNE 5.8 mph - N/A   Clear
8:15 PM 42.8 °F 38.0 °F 32.0 °F 66% 30.08 in 10.0 mi North 8.1 mph - N/A   Clear
8:35 PM 42.8 °F 38.6 °F 32.0 °F 66% 30.08 in 10.0 mi NNE 6.9 mph - N/A   Clear
8:55 PM 42.8 °F 38.6 °F 32.0 °F 66% 30.07 in 10.0 mi NNE 6.9 mph - N/A   Clear
9:15 PM 42.8 °F 38.6 °F 32.0 °F 66% 30.07 in 10.0 mi NNE 6.9 mph - N/A   Clear
9:35 PM 41.0 °F - 32.0 °F 70% 30.07 in 10.0 mi Calm Calm - N/A   Clear
9:55 PM 41.0 °F 35.8 °F 32.0 °F 70% 30.07 in 10.0 mi North 8.1 mph - N/A   Clear
10:15 PM 41.0 °F 39.0 °F 32.0 °F 70% 30.06 in 10.0 mi North 3.5 mph - N/A   Clear
10:35 PM 41.0 °F 35.8 °F 32.0 °F 70% 30.06 in 10.0 mi North 8.1 mph - N/A   Clear
10:55 PM 39.2 °F 32.5 °F 32.0 °F 75% 30.06 in 10.0 mi North 10.4 mph - N/A   Clear
11:15 PM 39.2 °F 35.0 °F 32.0 °F 75% 30.04 in 10.0 mi NNE 5.8 mph - N/A   Clear
11:35 PM 39.2 °F 37.0 °F 32.0 °F 75% 30.04 in 10.0 mi NNE 3.5 mph - N/A   Clear
11:55 PM 37.4 °F 32.1 °F 32.0 °F 81% 30.03 in 10.0 mi North 6.9 mph - N/A   Clear